Weather reports worldwide

Advertisment
K14A, Netherlands (6204): temperature & dewpoint: 09.08.2020 21:00:00 - 15.08.2020 21:00:00 (CEST)K14A, Netherlands (6204): wind speed & gusts: 09.08.2020 21:00:00 - 15.08.2020 21:00:00 (CEST)K14A, Netherlands (6204): wind direction: 09.08.2020 21:00:00 - 15.08.2020 21:00:00 (CEST)K14A, Netherlands (6204): reduced air pressure: 09.08.2020 21:00:00 - 15.08.2020 21:00:00 (CEST)K14A, Netherlands (6204): visibility: 09.08.2020 21:00:00 - 15.08.2020 21:00:00 (CEST)
Date & Time tt [°C] td [°C] ff [km/h] ff [kn] fx [km/h] fx [kn] dd ppp [hPa] vv [km]
15.08.2020 21:00:00 19,3 18,4 31 17 32 18 N 1015,4 10
15.08.2020 20:00:00 19,3 18,3 35 19 32 18 NE 1015,3 10
15.08.2020 19:00:00 19,3 18,4 31 17 32 18 NE 1015,2 10
15.08.2020 18:00:00 19,3 18,5 29 16 29 16 NE 1015,5 10
15.08.2020 17:00:00 19,3 18,5 28 15 29 16 NE 1015,7 10
15.08.2020 16:00:00 19,3 18,4 28 15 29 16 NE 1016,0 10
15.08.2020 15:00:00 19,4 18,4 29 16 29 16 NE 1016,2 10
15.08.2020 14:00:00 19,4 18,4 26 14 29 16 N 1016,6 10
15.08.2020 13:00:00 19,3 18,6 31 17 32 18 NE 1016,2 10
15.08.2020 12:00:00 19,2 18,5 34 18 32 18 NE 1016,0 10
15.08.2020 11:00:00 19,0 18,5 35 19 36 19 NE 1015,8 10
15.08.2020 10:00:00 18,9 18,3 39 21 36 19 NE 1015,6 10
15.08.2020 09:00:00 18,9 18,2 32 18 40 21 NE 1015,3 12
15.08.2020 08:00:00 18,9 18,2 39 21 36 19 NNE 1014,9 6
15.08.2020 07:00:00 19,0 18,4 34 18 32 18 NNE 1014,8 8
15.08.2020 06:00:00 19,1 18,1 28 15 29 16 NE 1014,7 10
15.08.2020 05:00:00 19,2 18,1 29 16 29 16 NE 1014,5 10
15.08.2020 04:00:00 19,3 18,1 29 16 29 16 NE 1014,9 10
15.08.2020 03:00:00 19,4 17,6 29 16 29 16 NE 1015,0 10
15.08.2020 02:00:00 19,4 17,8 29 16 29 16 NE 1015,1 10
15.08.2020 01:00:00 19,4 18,3 31 17 32 18 NE 1015,2 10
15.08.2020 00:00:00 19,3 18,6 28 15 29 16 NE 1015,0 10
14.08.2020 23:00:00 19,4 18,6 28 15 29 16 NE 1015,0 10
14.08.2020 22:00:00 19,5 18,6 29 16 29 16 NE 1014,6 10
14.08.2020 21:00:00 19,6 18,6 29 16 29 16 NNE 1014,2 10
14.08.2020 20:00:00 19,6 18,7 26 14 25 14 NNE 1014,0 10
14.08.2020 19:00:00 19,9 18,9 26 14 25 14 NNE 1013,7 10
14.08.2020 18:00:00 19,9 18,9 24 13 22 12 NNE 1013,7 10
14.08.2020 17:00:00 19,7 19,0 21 11 18 10 NE 1013,6 10
14.08.2020 16:00:00 19,8 18,2 15 8 18 10 NNE 1013,8 10
14.08.2020 15:00:00 21,0 16,6 8 4 14 8 NE 1013,9 10
14.08.2020 14:00:00 19,9 17,9 15 8 25 14 NE 1013,8 10
14.08.2020 13:00:00 19,4 18,2 18 10 29 16 NNE 1013,3 10
14.08.2020 12:00:00 19,5 18,2 29 16 32 18 NNE 1013,1 10
14.08.2020 11:00:00 19,7 18,8 15 8 18 10 NE 1013,2 7
14.08.2020 10:00:00 19,9 19,0 15 8 18 10 NE 1013,0 0,7
14.08.2020 09:00:00 20,8 18,7 16 9 25 14 WSW 1013,0 6
14.08.2020 08:00:00 20,7 19,5 11 6 25 14 SSE 1012,2 10
14.08.2020 07:00:00 20,4 19,2 37 20 36 19 N 1011,7 10
14.08.2020 06:00:00 20,1 18,7 31 17 29 16 ENE 1011,3 10
14.08.2020 05:00:00 20,4 18,7 34 18 32 18 N 1011,4 10
14.08.2020 04:00:00 20,5 18,4 35 19 36 19 N 1011,5 10
14.08.2020 03:00:00 20,8 18,2 39 21 40 21 N 1011,6 10
14.08.2020 02:00:00 20,9 18,2 42 23 40 21 N 1011,9 10
14.08.2020 01:00:00 21,1 18,2 37 20 36 19 N 1012,2 10
14.08.2020 00:00:00 21,0 18,5 35 19 32 18 N 1012,6 10
13.08.2020 23:00:00 20,9 18,5 34 18 32 18 NE 1012,5 10
13.08.2020 22:00:00 20,8 18,7 29 16 29 16 NE 1012,3 10
13.08.2020 21:00:00 20,8 18,7 29 16 25 14 N 1012,3 10
13.08.2020 20:00:00 20,6 18,6 26 14 29 16 NE 1012,2 10
13.08.2020 19:00:00 20,6 18,9 29 16 32 18 NE 1012,2 10
13.08.2020 18:00:00 20,6 18,8 31 17 29 16 NE 1012,3 10
13.08.2020 17:00:00 20,6 18,7 28 15 29 16 NE 1012,7 10
13.08.2020 16:00:00 20,7 18,8 31 17 32 18 N 1013,2 10
13.08.2020 15:00:00 20,7 18,7 34 18 29 16 N 1013,0 10
13.08.2020 14:00:00 20,4 18,7 29 16 29 16 N 1012,9 10
13.08.2020 13:00:00 20,6 18,7 18 10 22 12 NE 1012,9 10
13.08.2020 12:00:00 20,9 18,7 16 9 29 16 N 1012,9 10
13.08.2020 11:00:00 21,2 18,8 24 13 29 16 N 1013,0 10
13.08.2020 10:00:00 21,4 19,1 21 11 25 14 NNE 1013,2 10
13.08.2020 09:00:00 21,2 18,9 13 7 18 10 NNE 1013,0 10
13.08.2020 08:00:00 22,6 18,8 16 9 22 12 NE 1012,7 10
13.08.2020 07:00:00 23,1 18,9 21 11 22 12 ESE 1012,5 10
13.08.2020 06:00:00 22,6 18,6 28 15 32 18 ENE 1012,4 10
13.08.2020 05:00:00 21,7 19,3 26 14 25 14 NE 1012,7 10
13.08.2020 04:00:00 20,8 19,3 15 8 18 10 N 1012,6 10
13.08.2020 03:00:00 20,7 19,2 18 10 22 12 N 1012,9 10
13.08.2020 02:00:00 21,0 19,0 22 12 22 12 N 1013,1 10
13.08.2020 01:00:00 20,8 19,0 18 10 22 12 ENE 1013,6 10
13.08.2020 00:00:00 21,1 19,1 22 12 25 14 N 1014,2 10
12.08.2020 23:00:00 20,8 19,1 26 14 25 14 ENE 1014,2 10
12.08.2020 22:00:00 21,0 19,2 26 14 25 14 N 1014,4 10
12.08.2020 21:00:00 21,0 19,3 26 14 25 14 NE 1013,9 10
12.08.2020 20:00:00 21,3 19,4 22 12 22 12 NE 1014,1 10
12.08.2020 19:00:00 21,5 19,6 21 11 22 12 NE 1014,5 10
12.08.2020 18:00:00 21,7 19,5 15 8 18 10 NE 1014,7 10
12.08.2020 17:00:00 22,0 19,3 11 6 11 6 N 1015,2 10
12.08.2020 16:00:00 22,2 19,3 8 4 11 6 N 1015,8 10
12.08.2020 15:00:00 21,1 19,6 8 4 14 8 N 1015,8 7
12.08.2020 14:00:00 21,5 19,2 13 7 14 8 NE 1016,2 7
12.08.2020 13:00:00 21,5 18,7 11 6 18 10 SE 1016,2 10
12.08.2020 12:00:00 21,8 19,0 13 7 18 10 SSE 1015,9 10
12.08.2020 11:00:00 21,2 18,9 16 9 25 14 E 1015,8 10
12.08.2020 10:00:00 21,1 18,7 26 14 25 14 ENE 1015,6 10
12.08.2020 09:00:00 21,4 18,3 29 16 29 16 ENE 1015,4 10
12.08.2020 08:00:00 21,3 18,1 18 10 29 16 ENE 1015,3 10
12.08.2020 07:00:00 21,8 18,4 14 8 25 14 SE 1015,0 12
12.08.2020 06:00:00 22,9 18,5 28 15 32 18 S 1014,9 10
12.08.2020 05:00:00 22,2 18,6 29 16 32 18 ENE 1014,8 10
12.08.2020 04:00:00 22,6 18,3 37 20 36 19 NE 1015,2 10
12.08.2020 03:00:00 23,1 18,3 41 22 40 21 NE 1015,2 7
12.08.2020 02:00:00 22,7 18,0 37 20 43 23 NE 1015,3 10
12.08.2020 01:00:00 21,8 19,4 22 12 29 16 NNE 1015,4 15
12.08.2020 00:00:00 21,8 19,3 28 15 36 19 NNE 1015,6 10
11.08.2020 23:00:00 21,9 19,3 41 22 40 21 NNE 1015,8 10
11.08.2020 22:00:00 21,4 19,1 39 21 36 19 NNE 1015,5 10
11.08.2020 21:00:00 21,5 19,1 41 22 43 23 NNE 1015,0 10
11.08.2020 20:00:00 21,1 19,0 44 24 40 21 N 1015,1 10
11.08.2020 19:00:00 21,1 19,0 41 22 36 19 N 1014,9 10
11.08.2020 18:00:00 20,6 19,0 35 19 36 19 N 1015,3 10
11.08.2020 17:00:00 20,5 18,8 39 21 36 19 N 1016,0 10
11.08.2020 16:00:00 20,4 18,7 39 21 36 19 N 1016,3 10
11.08.2020 15:00:00 20,3 18,5 37 20 36 19 N 1016,2 10
11.08.2020 14:00:00 20,2 18,4 37 20 36 19 N 1016,9 10
11.08.2020 13:00:00 20,1 18,3 39 21 36 19 N 1016,9 10
11.08.2020 12:00:00 20,4 18,2 37 20 32 18 N 1017,0 10
11.08.2020 11:00:00 20,7 18,2 41 22 40 21 N 1017,2 10
11.08.2020 10:00:00 20,7 18,3 42 23 40 21 N 1017,0 10
11.08.2020 09:00:00 20,4 18,3 42 23 40 21 NNE 1017,0 10
11.08.2020 08:00:00 20,6 18,6 37 20 36 19 NNE 1016,8 10
11.08.2020 07:00:00 20,8 18,3 42 23 40 21 NNE 1016,9 10
11.08.2020 06:00:00 21,1 18,4 41 22 40 21 NNE 1016,5 10
11.08.2020 05:00:00 21,2 18,8 41 22 40 21 NNE 1016,5 10
11.08.2020 04:00:00 21,3 19,0 44 24 43 23 NNE 1016,5 10
11.08.2020 03:00:00 20,6 18,8 36 19 43 23 NNE 1016,6 12
11.08.2020 02:00:00 20,3 18,5 39 21 36 19 NNE 1016,6 10
11.08.2020 01:00:00 20,4 18,3 41 22 40 21 N 1016,6 10
11.08.2020 00:00:00 20,3 18,2 41 22 40 21 N 1017,0 10
10.08.2020 23:00:00 20,4 18,3 44 24 40 21 N 1016,8 10
10.08.2020 22:00:00 20,4 18,3 41 22 40 21 N 1016,6 10
10.08.2020 21:00:00 20,5 18,3 44 24 43 23 N 1016,3 10
10.08.2020 20:00:00 20,7 18,3 44 24 40 21 N 1015,9 10
10.08.2020 19:00:00 20,3 18,3 35 19 36 19 N 1015,8 10
10.08.2020 18:00:00 20,1 18,6 41 22 36 19 N 1016,4 10
10.08.2020 17:00:00 19,7 18,7 41 22 36 19 N 1016,6 10
10.08.2020 16:00:00 19,4 18,5 34 18 32 18 N 1016,7 10
10.08.2020 15:00:00 19,4 18,4 34 18 32 18 N 1017,1 10
10.08.2020 14:00:00 19,3 18,2 34 18 32 18 N 1017,1 10
10.08.2020 13:00:00 19,5 18,1 39 21 36 19 N 1016,9 10
10.08.2020 12:00:00 19,3 17,8 34 18 36 19 N 1017,1 10
10.08.2020 11:00:00 19,4 17,8 37 20 36 19 N 1017,2 10
10.08.2020 10:00:00 19,2 17,9 34 18 36 19 N 1017,1 10
10.08.2020 09:00:00 19,3 17,9 39 21 36 19 N 1016,9 10
10.08.2020 08:00:00 19,0 17,7 35 19 36 19 N 1016,9 10
10.08.2020 07:00:00 18,8 17,2 41 22 40 21 N 1017,0 10
10.08.2020 06:00:00 18,9 16,8 41 22 43 23 N 1016,9 10
10.08.2020 05:00:00 18,8 16,5 36 19 40 21 N 1017,0 19
10.08.2020 04:00:00 18,8 16,3 42 23 40 21 NE 1017,4 10
10.08.2020 03:00:00 18,9 16,1 41 22 40 21 NE 1017,6 10
10.08.2020 02:00:00 18,7 16,5 39 21 40 21 NE 1018,0 10
10.08.2020 01:00:00 18,7 16,7 41 22 40 21 NE 1018,5 10
10.08.2020 00:00:00 18,6 16,8 42 23 40 21 NE 1018,6 10
09.08.2020 23:00:00 18,6 17,0 41 22 40 21 NE 1018,9 10
09.08.2020 22:00:00 18,7 17,2 44 24 43 23 NE 1018,7 10
09.08.2020 21:00:00 18,7 17,4 46 25 43 23 NE 1018,6 10

tt = temperature
td = dewpoint
ff = wind speed
fx = gusts
dd = wind direction
ppp = reduced air pressure
vv = visibility

Next stations